NOZ98C ENGM-LGSA

Flight info

Callsign NOZ98C
Flight time N/A
Altitude 350
Route OKSAT L996 KELIN DCT POKEN DCT DENKO L616 DESEN DCT MAKAL DCT PARAK/N0439F370 DCT IRGOR DCT IBISI DCT MAKED UL617 AGISA DCT ATV UP169 MANOK UL612 RUSOS
Aircraft B738/L-VGDW/C

Departure

Time 2026-05-06 13:38
Airport Oslo-Gardermoen International Airport (ENGM)

Arrival

Time N/A
Airport Chania International Airport (LGSA)
Time Latitude Longitude Altitude Speed Heading
2026-05-06 12:54 60.19321 11.10418 684 ft 0 kts 16°
2026-05-06 13:25 60.19310 11.10412 678 ft 4 kts 23°
2026-05-06 13:25 60.19296 11.10395 681 ft 4 kts 43°
2026-05-06 13:26 60.19282 11.10353 676 ft 4 kts 79°
2026-05-06 13:26 60.19282 11.10314 679 ft 0 kts 106°
2026-05-06 13:30 60.19282 11.10315 679 ft 0 kts 106°
2026-05-06 13:30 60.19274 11.10365 679 ft 8 kts 106°
2026-05-06 13:31 60.19253 11.10512 684 ft 14 kts 106°
2026-05-06 13:31 60.19223 11.10722 684 ft 16 kts 105°
2026-05-06 13:31 60.19195 11.10925 684 ft 14 kts 105°
2026-05-06 13:31 60.19174 11.11093 679 ft 11 kts 91°
2026-05-06 13:32 60.19240 11.11176 684 ft 14 kts 15°
2026-05-06 13:32 60.19353 11.11240 683 ft 19 kts 15°
2026-05-06 13:32 60.19502 11.11325 681 ft 25 kts 17°
2026-05-06 13:32 60.19650 11.11412 682 ft 14 kts 17°
2026-05-06 13:33 60.19670 11.11425 682 ft 0 kts 18°
2026-05-06 13:34 60.19688 11.11437 680 ft 5 kts 19°
2026-05-06 13:34 60.19740 11.11469 683 ft 10 kts 15°
2026-05-06 13:34 60.19824 11.11516 683 ft 15 kts 14°
2026-05-06 13:34 60.19939 11.11568 684 ft 18 kts 15°
2026-05-06 13:35 60.20054 11.11651 680 ft 19 kts 20°
2026-05-06 13:35 60.20128 11.11707 682 ft 4 kts 20°
2026-05-06 13:35 60.20136 11.11713 682 ft 3 kts 20°
2026-05-06 13:35 60.20167 11.11741 684 ft 6 kts 38°
2026-05-06 13:36 60.20169 11.11842 682 ft 10 kts 104°
2026-05-06 13:36 60.20148 11.11985 685 ft 11 kts 107°
2026-05-06 13:36 60.20125 11.12133 683 ft 12 kts 107°
2026-05-06 13:36 60.20095 11.12241 689 ft 8 kts 161°
2026-05-06 13:37 60.20043 11.12206 687 ft 5 kts 197°
2026-05-06 13:37 60.20042 11.12205 687 ft 0 kts 197°
2026-05-06 13:37 60.20004 11.12184 685 ft 27 kts 197°
2026-05-06 13:37 60.19604 11.11955 679 ft 91 kts 195°
2026-05-06 13:38 60.18814 11.11500 683 ft 143 kts 195°
2026-05-06 13:38 60.17729 11.10862 834 ft 174 kts 195°
2026-05-06 13:38 60.16519 11.10138 1309 ft 191 kts 196°
2026-05-06 13:38 60.15218 11.09417 2072 ft 193 kts 197°
2026-05-06 13:39 60.13820 11.08932 2348 ft 217 kts 176°
2026-05-06 13:39 60.12419 11.10146 2869 ft 229 kts 135°
2026-05-06 13:39 60.11580 11.12877 3452 ft 234 kts 119°
2026-05-06 13:39 60.10477 11.15271 3944 ft 235 kts 151°
2026-05-06 13:40 60.09029 11.16751 4532 ft 236 kts 155°
2026-05-06 13:40 60.07577 11.18273 5142 ft 236 kts 154°
2026-05-06 13:40 60.06118 11.19838 5720 ft 240 kts 154°
2026-05-06 13:40 60.04647 11.21422 6450 ft 239 kts 153°
2026-05-06 13:41 60.03169 11.23004 7072 ft 243 kts 153°
2026-05-06 13:41 60.01701 11.24578 7773 ft 243 kts 154°
2026-05-06 13:41 60.00174 11.26198 8288 ft 253 kts 154°
2026-05-06 13:41 59.98570 11.27887 8491 ft 273 kts 154°
2026-05-06 13:42 59.96864 11.29682 9024 ft 280 kts 154°
2026-05-06 13:42 59.95139 11.31506 9729 ft 282 kts 155°
2026-05-06 13:42 59.93388 11.33349 10378 ft 285 kts 155°
2026-05-06 13:42 59.91621 11.35213 10945 ft 290 kts 155°
2026-05-06 13:43 59.89831 11.37122 11575 ft 293 kts 156°
2026-05-06 13:43 59.88015 11.39033 12188 ft 297 kts 156°
2026-05-06 13:43 59.86173 11.40963 12763 ft 302 kts 157°
2026-05-06 13:43 59.84256 11.42648 13334 ft 301 kts 169°
2026-05-06 13:44 59.82225 11.43596 13922 ft 300 kts 174°
2026-05-06 13:44 59.80173 11.44416 14510 ft 302 kts 175°
2026-05-06 13:44 59.78103 11.45238 15071 ft 304 kts 175°
2026-05-06 13:44 59.76017 11.46070 15627 ft 307 kts 175°
2026-05-06 13:45 59.73920 11.46910 16196 ft 309 kts 176°
2026-05-06 13:45 59.69676 11.48622 17305 ft 314 kts 176°
2026-05-06 13:45 59.67524 11.49492 17782 ft 320 kts 176°
2026-05-06 13:46 59.65300 11.50385 18091 ft 330 kts 176°
2026-05-06 13:46 59.63043 11.51298 18564 ft 333 kts 176°
2026-05-06 13:46 59.60769 11.52223 19100 ft 333 kts 176°
2026-05-06 13:46 59.58499 11.53148 19617 ft 334 kts 176°
2026-05-06 13:47 59.56213 11.54076 20106 ft 336 kts 176°
2026-05-06 13:47 59.53915 11.55006 20594 ft 338 kts 177°
2026-05-06 13:47 59.51600 11.55941 21050 ft 340 kts 177°
2026-05-06 13:47 59.49274 11.56882 21536 ft 341 kts 177°
2026-05-06 13:48 59.46945 11.57822 22024 ft 342 kts 177°
2026-05-06 13:48 59.44608 11.58762 22504 ft 344 kts 177°
2026-05-06 13:48 59.42257 11.59705 22956 ft 346 kts 178°
2026-05-06 13:48 59.39887 11.60654 23411 ft 348 kts 178°
2026-05-06 13:49 59.37509 11.61606 23832 ft 349 kts 178°
2026-05-06 13:49 59.35132 11.62558 24232 ft 349 kts 178°
2026-05-06 13:49 59.32744 11.63512 24609 ft 351 kts 178°
2026-05-06 13:49 59.30375 11.64457 24968 ft 353 kts 178°
2026-05-06 13:50 59.27939 11.65427 25338 ft 354 kts 178°
2026-05-06 13:50 59.25554 11.66376 25696 ft 355 kts 178°
2026-05-06 13:50 59.23130 11.67339 26061 ft 356 kts 178°
2026-05-06 13:50 59.20707 11.68300 26431 ft 356 kts 178°
2026-05-06 13:51 59.18268 11.69266 26768 ft 358 kts 178°
2026-05-06 13:51 59.15822 11.70232 27089 ft 360 kts 178°
2026-05-06 13:51 59.13359 11.71203 27429 ft 361 kts 178°
2026-05-06 13:51 59.10903 11.72172 27766 ft 362 kts 178°
2026-05-06 13:52 59.08428 11.73145 28063 ft 364 kts 178°
2026-05-06 13:52 59.05944 11.74122 28377 ft 365 kts 178°
2026-05-06 13:52 59.03449 11.75102 28704 ft 366 kts 178°
2026-05-06 13:52 59.00949 11.76081 29010 ft 367 kts 178°
2026-05-06 13:53 58.98442 11.77061 29305 ft 369 kts 178°
2026-05-06 13:53 58.95921 11.78046 29596 ft 370 kts 178°
2026-05-06 13:53 58.93394 11.79033 29877 ft 371 kts 178°
2026-05-06 13:53 58.90858 11.80021 30136 ft 372 kts 178°
2026-05-06 13:54 58.88315 11.81010 30347 ft 374 kts 178°
2026-05-06 13:54 58.85756 11.82004 30581 ft 375 kts 178°
2026-05-06 13:54 58.83196 11.82996 30779 ft 376 kts 178°
2026-05-06 13:54 58.80624 11.83992 30988 ft 378 kts 178°
2026-05-06 13:55 58.78044 11.84990 31198 ft 379 kts 178°
2026-05-06 13:55 58.75452 11.85990 31385 ft 380 kts 177°
2026-05-06 13:55 58.72857 11.86991 31573 ft 382 kts 177°
2026-05-06 13:55 58.70250 11.87994 31759 ft 383 kts 177°
2026-05-06 13:56 58.67630 11.89000 31949 ft 384 kts 177°
2026-05-06 13:56 58.65006 11.90007 32125 ft 385 kts 177°
2026-05-06 13:56 58.62373 11.91016 32335 ft 387 kts 177°
2026-05-06 13:56 58.59767 11.92014 32503 ft 387 kts 177°
2026-05-06 13:57 58.57118 11.93026 32668 ft 389 kts 177°
2026-05-06 13:57 58.54460 11.94039 32818 ft 391 kts 177°
2026-05-06 13:57 58.51790 11.95055 32984 ft 392 kts 177°
2026-05-06 13:57 58.49117 11.96072 33156 ft 393 kts 177°
2026-05-06 13:58 58.46428 11.97093 33304 ft 394 kts 176°
2026-05-06 13:58 58.43736 11.98114 33453 ft 395 kts 176°
2026-05-06 13:58 58.41032 11.99137 33595 ft 397 kts 176°
2026-05-06 13:58 58.38324 12.00161 33752 ft 397 kts 176°
2026-05-06 13:59 58.35609 12.01186 33893 ft 398 kts 176°
2026-05-06 13:59 58.32885 12.02213 34015 ft 400 kts 176°
2026-05-06 13:59 58.27411 12.04269 34205 ft 403 kts 176°
2026-05-06 14:00 58.21961 12.07167 34370 ft 417 kts 164°
2026-05-06 14:00 58.19302 12.09398 34487 ft 418 kts 164°
2026-05-06 14:00 58.16629 12.11605 34579 ft 419 kts 164°
2026-05-06 14:01 58.11262 12.15957 34781 ft 420 kts 164°
2026-05-06 14:01 58.08569 12.18121 34882 ft 421 kts 164°
2026-05-06 14:01 58.05870 12.20282 34923 ft 422 kts 164°
2026-05-06 14:02 58.00470 12.24589 34939 ft 426 kts 164°
2026-05-06 14:02 57.94979 12.28956 34937 ft 431 kts 164°
2026-05-06 14:03 57.89431 12.33356 34937 ft 435 kts 164°
2026-05-06 14:03 57.83830 12.37785 34937 ft 439 kts 164°
2026-05-06 14:04 57.78189 12.42232 34936 ft 441 kts 163°
2026-05-06 14:04 57.72520 12.46687 34927 ft 442 kts 163°
2026-05-06 14:05 57.66858 12.51122 34929 ft 441 kts 163°
2026-05-06 14:05 57.61210 12.55530 34916 ft 439 kts 163°
2026-05-06 14:06 57.55621 12.59877 34918 ft 437 kts 163°
2026-05-06 14:06 57.50023 12.64215 34906 ft 435 kts 163°
2026-05-06 14:07 57.44444 12.68523 34912 ft 433 kts 163°
2026-05-06 14:07 57.38890 12.72797 34904 ft 431 kts 163°
2026-05-06 14:08 57.33350 12.77046 34900 ft 430 kts 163°
2026-05-06 14:08 57.27819 12.81274 34896 ft 430 kts 163°
2026-05-06 14:09 57.22292 12.85487 34900 ft 430 kts 163°
2026-05-06 14:09 57.16753 12.89693 34898 ft 430 kts 163°
2026-05-06 14:10 57.11214 12.93887 34902 ft 431 kts 163°
2026-05-06 14:10 57.05655 12.98082 34906 ft 433 kts 163°
2026-05-06 14:11 57.00071 13.02283 34911 ft 434 kts 163°
2026-05-06 14:11 56.94471 13.06482 34916 ft 436 kts 163°
2026-05-06 14:12 56.88850 13.10683 34928 ft 437 kts 163°
2026-05-06 14:12 56.83208 13.14886 34927 ft 439 kts 163°
2026-05-06 14:13 56.77549 13.19089 34925 ft 440 kts 163°
2026-05-06 14:13 56.71875 13.23290 34927 ft 440 kts 162°
2026-05-06 14:14 56.66209 13.27471 34926 ft 439 kts 162°
2026-05-06 14:14 56.60592 13.31602 34924 ft 438 kts 162°
2026-05-06 14:15 56.54950 13.35738 34919 ft 437 kts 162°
2026-05-06 14:15 56.49330 13.39845 34919 ft 435 kts 162°
2026-05-06 14:16 56.43732 13.43922 34922 ft 433 kts 162°
2026-05-06 14:16 56.38153 13.47972 34926 ft 431 kts 161°
2026-05-06 14:17 56.32598 13.51992 34929 ft 429 kts 161°
2026-05-06 14:17 56.28003 13.55308 34930 ft 428 kts 161°
2026-05-06 14:18 56.22474 13.59286 34932 ft 427 kts 161°
2026-05-06 14:18 56.16958 13.63242 34934 ft 427 kts 161°
2026-05-06 14:19 56.11436 13.67190 34936 ft 428 kts 161°
2026-05-06 14:19 56.05891 13.71143 34951 ft 429 kts 161°
2026-05-06 14:20 56.00337 13.75090 34954 ft 431 kts 161°
2026-05-06 14:20 55.94757 13.79042 34960 ft 432 kts 161°
2026-05-06 14:21 55.89157 13.82998 34963 ft 434 kts 161°
2026-05-06 14:21 55.83536 13.86955 34961 ft 435 kts 161°
2026-05-06 14:22 55.77891 13.90918 34970 ft 437 kts 161°
2026-05-06 14:22 55.72228 13.94881 34952 ft 438 kts 161°
2026-05-06 14:23 55.66556 13.98837 34939 ft 438 kts 161°
2026-05-06 14:23 55.60884 14.02782 34943 ft 438 kts 161°
2026-05-06 14:24 55.55208 14.06716 34934 ft 438 kts 161°
2026-05-06 14:24 55.49522 14.10645 34936 ft 438 kts 161°
2026-05-06 14:25 55.43850 14.14553 34934 ft 438 kts 161°
2026-05-06 14:25 55.38173 14.18452 34980 ft 440 kts 161°
2026-05-06 14:26 55.35306 14.20416 35089 ft 441 kts 161°
2026-05-06 14:26 55.32462 14.22361 35191 ft 441 kts 161°
2026-05-06 14:26 55.26708 14.26288 35361 ft 443 kts 161°
2026-05-06 14:27 55.23847 14.28237 35544 ft 441 kts 161°
2026-05-06 14:27 55.20995 14.30177 35702 ft 440 kts 161°
2026-05-06 14:27 55.18140 14.32116 35867 ft 438 kts 161°
2026-05-06 14:27 55.15297 14.34043 35993 ft 438 kts 161°
2026-05-06 14:28 55.09560 14.37919 35906 ft 445 kts 161°
2026-05-06 14:28 55.03735 14.41845 35758 ft 452 kts 161°
2026-05-06 14:29 54.97896 14.45773 35741 ft 442 kts 161°
2026-05-06 14:29 54.95049 14.47685 35601 ft 437 kts 161°
2026-05-06 14:29 54.92273 14.49545 35550 ft 429 kts 161°
2026-05-06 14:30 54.86676 14.53282 35579 ft 430 kts 162°
2026-05-06 14:30 54.81067 14.57015 35550 ft 435 kts 162°
2026-05-06 14:31 54.78229 14.58901 35448 ft 438 kts 162°
2026-05-06 14:31 54.75408 14.60774 35373 ft 442 kts 161°
2026-05-06 14:31 54.69613 14.64615 35190 ft 450 kts 162°
2026-05-06 14:32 54.66685 14.66552 35031 ft 451 kts 162°
2026-05-06 14:32 54.63765 14.68484 34914 ft 448 kts 162°
2026-05-06 14:32 54.57997 14.72292 34891 ft 441 kts 162°
2026-05-06 14:33 54.52245 14.76073 34890 ft 443 kts 162°
2026-05-06 14:33 54.46468 14.79855 34883 ft 446 kts 162°
2026-05-06 14:34 54.40648 14.83656 34877 ft 448 kts 162°
2026-05-06 14:34 54.34846 14.87438 34861 ft 443 kts 162°
2026-05-06 14:35 54.29106 14.91168 34855 ft 440 kts 162°
2026-05-06 14:35 54.23394 14.94865 34854 ft 438 kts 163°
2026-05-06 14:36 54.17701 14.98539 34858 ft 438 kts 163°
2026-05-06 14:36 54.11969 15.02225 34848 ft 443 kts 163°
2026-05-06 14:37 54.06137 15.05965 34844 ft 447 kts 163°
2026-05-06 14:37 54.00334 15.09678 34849 ft 449 kts 163°
2026-05-06 14:38 53.94472 15.13419 34834 ft 450 kts 163°
2026-05-06 14:38 53.88600 15.17154 34818 ft 450 kts 163°
2026-05-06 14:39 53.82745 15.20868 34828 ft 448 kts 163°
2026-05-06 14:39 53.76917 15.24553 34819 ft 447 kts 164°
2026-05-06 14:40 53.71112 15.28212 34820 ft 445 kts 164°
2026-05-06 14:40 53.65326 15.31848 34813 ft 443 kts 164°
2026-05-06 14:41 53.59563 15.35459 34816 ft 441 kts 164°
2026-05-06 14:41 53.53811 15.39052 34809 ft 440 kts 165°
2026-05-06 14:42 53.48086 15.42619 34808 ft 438 kts 165°
2026-05-06 14:42 53.42364 15.46172 34805 ft 438 kts 165°
2026-05-06 14:43 53.36660 15.49705 34807 ft 438 kts 165°
2026-05-06 14:43 53.30937 15.53238 34803 ft 438 kts 165°
2026-05-06 14:44 53.25226 15.56755 34807 ft 438 kts 165°
2026-05-06 14:45 53.16656 15.62015 34798 ft 439 kts 165°
2026-05-06 14:45 53.10913 15.65526 34793 ft 440 kts 165°
2026-05-06 14:46 53.05170 15.69028 34795 ft 440 kts 165°
2026-05-06 14:46 52.99425 15.72522 34794 ft 440 kts 165°
2026-05-06 14:47 52.93664 15.76015 34796 ft 440 kts 165°
2026-05-06 14:47 52.87907 15.79498 34793 ft 440 kts 165°
2026-05-06 14:48 52.82152 15.82968 34789 ft 441 kts 165°
2026-05-06 14:48 52.76445 15.86763 34787 ft 443 kts 162°
2026-05-06 14:49 52.70786 15.90801 34791 ft 443 kts 162°
2026-05-06 14:49 52.65125 15.94819 34791 ft 443 kts 162°
2026-05-06 14:50 52.59454 15.98789 34792 ft 443 kts 163°
2026-05-06 14:50 52.53782 16.02729 34788 ft 443 kts 163°
2026-05-06 14:51 52.48107 16.06657 34791 ft 442 kts 163°
2026-05-06 14:51 52.42440 16.10569 34788 ft 442 kts 163°
2026-05-06 14:52 52.36775 16.14471 34793 ft 441 kts 163°
2026-05-06 14:52 52.31157 16.18329 34786 ft 441 kts 163°
2026-05-06 14:53 52.25483 16.22215 34792 ft 440 kts 163°
2026-05-06 14:53 52.19877 16.26043 34770 ft 439 kts 163°
2026-05-06 14:54 52.14251 16.29874 34776 ft 438 kts 163°
2026-05-06 14:54 52.08650 16.33678 34769 ft 437 kts 163°
2026-05-06 14:55 52.03030 16.37484 34765 ft 436 kts 163°
2026-05-06 14:55 51.97431 16.41266 34760 ft 436 kts 163°
2026-05-06 14:56 51.91835 16.45035 34761 ft 436 kts 163°
2026-05-06 14:56 51.86243 16.48792 34760 ft 436 kts 163°
2026-05-06 14:57 51.80635 16.52550 34760 ft 436 kts 163°
2026-05-06 14:57 51.75019 16.56303 34753 ft 437 kts 163°
2026-05-06 14:58 51.69396 16.60053 34753 ft 438 kts 163°
2026-05-06 14:58 51.63794 16.63774 34756 ft 438 kts 163°
2026-05-06 14:59 51.58150 16.67510 34756 ft 439 kts 163°
2026-05-06 14:59 51.52493 16.71249 34744 ft 440 kts 163°
2026-05-06 15:00 51.46838 16.74975 34747 ft 440 kts 163°
2026-05-06 15:00 51.41159 16.78704 34748 ft 441 kts 164°
2026-05-06 15:01 51.35484 16.82422 34759 ft 441 kts 164°
2026-05-06 15:01 51.29804 16.86135 34763 ft 441 kts 164°
2026-05-06 15:02 51.24130 16.89836 34768 ft 441 kts 164°
2026-05-06 15:02 51.18451 16.93528 34772 ft 441 kts 164°
2026-05-06 15:03 51.12778 16.97208 34774 ft 441 kts 164°
2026-05-06 15:03 51.07095 17.00888 34773 ft 440 kts 164°
2026-05-06 15:04 51.01423 17.04553 34770 ft 440 kts 164°
2026-05-06 15:04 50.96667 17.07626 34767 ft 440 kts 164°
2026-05-06 15:05 50.90990 17.11263 34762 ft 440 kts 165°
2026-05-06 15:05 50.85316 17.14901 34766 ft 440 kts 165°
2026-05-06 15:06 50.79650 17.18523 34761 ft 440 kts 165°
2026-05-06 15:06 50.73959 17.22148 34765 ft 440 kts 165°
2026-05-06 15:07 50.68319 17.25732 34768 ft 440 kts 165°
2026-05-06 15:07 50.62586 17.29368 34768 ft 441 kts 165°
2026-05-06 15:08 50.56941 17.32938 34776 ft 441 kts 165°
2026-05-06 15:08 50.51247 17.36530 34776 ft 441 kts 165°
2026-05-06 15:09 50.45544 17.40120 34776 ft 442 kts 165°
2026-05-06 15:09 50.39840 17.43700 34783 ft 442 kts 165°
2026-05-06 15:10 50.34127 17.47265 34785 ft 442 kts 165°
2026-05-06 15:10 50.28412 17.50816 34791 ft 442 kts 165°
2026-05-06 15:11 50.22712 17.54416 34789 ft 443 kts 164°
2026-05-06 15:11 50.17012 17.58117 34797 ft 443 kts 163°
2026-05-06 15:12 50.11314 17.61811 34794 ft 443 kts 164°
2026-05-06 15:12 50.05618 17.65481 34797 ft 444 kts 164°
2026-05-06 15:13 49.99908 17.69143 34799 ft 444 kts 164°
2026-05-06 15:13 49.94185 17.72802 34809 ft 445 kts 164°
2026-05-06 15:14 49.88464 17.76451 34792 ft 446 kts 164°
2026-05-06 15:14 49.82710 17.80112 34802 ft 447 kts 164°
2026-05-06 15:15 49.76963 17.83759 34801 ft 447 kts 164°
2026-05-06 15:15 49.71191 17.87413 34802 ft 448 kts 164°
2026-05-06 15:16 49.65446 17.91040 34803 ft 449 kts 164°
2026-05-06 15:16 49.59654 17.94688 34804 ft 450 kts 164°
2026-05-06 15:17 49.53846 17.98336 34804 ft 451 kts 164°
2026-05-06 15:17 49.48029 18.01981 34813 ft 452 kts 164°
2026-05-06 15:18 49.42200 18.05625 34809 ft 452 kts 164°
2026-05-06 15:18 49.36365 18.09263 34821 ft 453 kts 164°
2026-05-06 15:19 49.30515 18.12901 34826 ft 454 kts 164°
2026-05-06 15:19 49.24647 18.16541 34819 ft 455 kts 164°
2026-05-06 15:20 49.18802 18.20340 34826 ft 457 kts 163°
2026-05-06 15:20 49.12967 18.24262 34827 ft 458 kts 162°
2026-05-06 15:21 49.07137 18.28167 34823 ft 459 kts 163°
2026-05-06 15:21 49.01278 18.32056 34835 ft 458 kts 163°
2026-05-06 15:22 48.95419 18.35925 34832 ft 459 kts 163°
2026-05-06 15:22 48.89565 18.39777 34840 ft 459 kts 163°
2026-05-06 15:23 48.83702 18.43627 34835 ft 459 kts 163°
2026-05-06 15:23 48.77836 18.47469 34832 ft 459 kts 163°
2026-05-06 15:24 48.71976 18.51297 34860 ft 459 kts 163°
2026-05-06 15:24 48.66115 18.55115 34858 ft 459 kts 163°
2026-05-06 15:25 48.60249 18.58928 34849 ft 458 kts 162°
2026-05-06 15:25 48.54386 18.62728 34863 ft 458 kts 163°
2026-05-06 15:26 48.48530 18.66513 34859 ft 458 kts 162°
2026-05-06 15:26 48.42687 18.70282 34853 ft 461 kts 162°
2026-05-06 15:27 48.36784 18.74080 34859 ft 463 kts 162°
2026-05-06 15:27 48.30851 18.77889 34853 ft 464 kts 162°
2026-05-06 15:28 48.24906 18.81697 34864 ft 465 kts 162°
2026-05-06 15:28 48.18958 18.85496 34869 ft 465 kts 162°
2026-05-06 15:29 48.12993 18.89296 34862 ft 465 kts 162°
2026-05-06 15:29 48.07046 18.93075 34866 ft 464 kts 162°
2026-05-06 15:30 48.01111 18.96837 34872 ft 464 kts 162°
2026-05-06 15:30 47.95167 19.00593 34857 ft 462 kts 162°
2026-05-06 15:31 47.89255 19.04322 34871 ft 461 kts 162°
2026-05-06 15:31 47.83345 19.08040 34884 ft 461 kts 162°
2026-05-06 15:32 47.74475 19.13600 34879 ft 462 kts 162°
2026-05-06 15:32 47.69077 19.16974 34884 ft 462 kts 162°
2026-05-06 15:33 47.63174 19.20656 34887 ft 463 kts 162°
2026-05-06 15:33 47.57225 19.24358 34881 ft 464 kts 162°
2026-05-06 15:34 47.51236 19.28075 34879 ft 465 kts 162°
2026-05-06 15:34 47.45296 19.31753 34890 ft 465 kts 162°
2026-05-06 15:35 47.39314 19.35447 34879 ft 466 kts 162°
2026-05-06 15:35 47.33333 19.39132 34882 ft 466 kts 162°
2026-05-06 15:36 47.27345 19.42812 34887 ft 466 kts 162°
2026-05-06 15:36 47.21359 19.46482 34891 ft 466 kts 162°
2026-05-06 15:37 47.15379 19.50139 34896 ft 466 kts 162°
2026-05-06 15:37 47.09387 19.53795 34899 ft 466 kts 162°
2026-05-06 15:38 47.03399 19.57438 34977 ft 468 kts 162°
2026-05-06 15:38 47.00403 19.59258 35147 ft 467 kts 162°
2026-05-06 15:38 46.97387 19.61088 35305 ft 467 kts 162°
2026-05-06 15:39 46.94381 19.62909 35419 ft 468 kts 162°
2026-05-06 15:39 46.91369 19.64732 35507 ft 469 kts 162°
2026-05-06 15:39 46.85322 19.68385 35676 ft 470 kts 162°
2026-05-06 15:40 46.79269 19.72033 35835 ft 472 kts 162°
2026-05-06 15:40 46.73235 19.75661 35985 ft 472 kts 162°
2026-05-06 15:41 46.67155 19.79307 36117 ft 473 kts 162°
2026-05-06 15:41 46.61026 19.82974 36221 ft 473 kts 162°
2026-05-06 15:42 46.54966 19.86591 36300 ft 474 kts 162°
2026-05-06 15:42 46.51951 19.88390 36752 ft 464 kts 162°
2026-05-06 15:42 46.48973 19.90166 36886 ft 464 kts 163°
2026-05-06 15:43 46.42993 19.93715 36906 ft 464 kts 163°
2026-05-06 15:43 46.37034 19.97244 36902 ft 462 kts 163°
2026-05-06 15:44 46.31083 20.00762 36916 ft 461 kts 163°
2026-05-06 15:44 46.25151 20.04261 36910 ft 461 kts 163°
2026-05-06 15:45 46.19207 20.07760 36916 ft 460 kts 163°
2026-05-06 15:45 46.13241 20.11095 36911 ft 459 kts 166°
2026-05-06 15:46 46.07198 20.14002 36917 ft 458 kts 167°
2026-05-06 15:46 46.01134 20.16851 36919 ft 459 kts 167°
2026-05-06 15:47 45.95076 20.19739 36916 ft 460 kts 166°
2026-05-06 15:47 45.89007 20.22658 36915 ft 460 kts 166°
2026-05-06 15:48 45.82927 20.25585 36917 ft 461 kts 166°
2026-05-06 15:48 45.76837 20.28510 36919 ft 462 kts 166°
2026-05-06 15:49 45.70734 20.31432 36921 ft 463 kts 166°
2026-05-06 15:49 45.64624 20.34351 36917 ft 463 kts 166°
2026-05-06 15:50 45.58499 20.37270 36923 ft 464 kts 166°
2026-05-06 15:50 45.52379 20.40180 36922 ft 464 kts 166°
2026-05-06 15:51 45.46252 20.43087 36921 ft 464 kts 166°
2026-05-06 15:51 45.41161 20.45497 36927 ft 464 kts 166°
2026-05-06 15:52 45.35030 20.48393 36924 ft 464 kts 166°
2026-05-06 15:52 45.27907 20.51750 36922 ft 464 kts 166°
2026-05-06 15:53 45.22764 20.54168 36930 ft 464 kts 166°
2026-05-06 15:53 45.16639 20.57042 36926 ft 464 kts 166°
2026-05-06 15:54 45.10509 20.59911 36920 ft 464 kts 166°
2026-05-06 15:54 45.04369 20.62779 36923 ft 464 kts 166°
2026-05-06 15:55 44.98238 20.65636 36926 ft 464 kts 166°
2026-05-06 15:55 44.92148 20.68468 36924 ft 464 kts 166°
2026-05-06 15:56 44.86018 20.71312 36925 ft 464 kts 166°
2026-05-06 15:56 44.79887 20.74151 36929 ft 464 kts 166°
2026-05-06 15:57 44.73755 20.76984 36925 ft 464 kts 166°
2026-05-06 15:57 44.67658 20.79957 36923 ft 465 kts 163°
2026-05-06 15:58 44.61614 20.83211 36930 ft 465 kts 162°
2026-05-06 15:58 44.55574 20.86472 36923 ft 465 kts 162°
2026-05-06 15:59 44.49515 20.89692 36924 ft 465 kts 163°
2026-05-06 15:59 44.43458 20.92879 36927 ft 465 kts 163°
2026-05-06 16:00 44.37399 20.96054 36929 ft 465 kts 163°
2026-05-06 16:00 44.31330 20.99228 36918 ft 466 kts 163°
2026-05-06 16:01 44.25261 21.02397 37038 ft 465 kts 163°
2026-05-06 16:01 44.22229 21.03978 36921 ft 465 kts 162°
2026-05-06 16:01 44.19197 21.05557 36928 ft 465 kts 162°
2026-05-06 16:02 44.13130 21.08711 36944 ft 466 kts 162°
2026-05-06 16:02 44.07043 21.11868 36916 ft 467 kts 162°